Location: Central Coast NSW, Australia
(33.2407°S, 151.4316°E)
Time: 08:01:46
(UTC+11:00)

Hubble Space Telescope - Pass Details

Date: 30 March 2019
Orbit: 536 x 540 km, 28.5° (Epoch: 19 October)

Event Time Altitude Azimuth Distance (km) Brightness Sun altitude
Exits shadow 05:28:21 17° 358° (N) 1,391 2.7 -20.8°
Maximum altitude 05:29:31 19° 20° (NNE) 1,306 2.8 -20.6°
Drops below altitude 10° 05:32:31 10° 66° (ENE) 1,797 4.2 -19.9°
Sets 05:35:16 0° 84° (E) 2,691 5.8 -19.4°
